Volver al catálogo

COSMOS 1275 DEB

ActivoPO
NORAD 12672·DEBRIS·🇷🇺 Russia

Lanzado Jun 4, 1981 desde Plesetsk Cosmodrome

Loading…

Próximos Pases (próximas 24 horas)

TLE

ActualizadoSource: Space-Track

Época: Sep 14, 2026, 13:13 UTC

1 12672U 81053AC  26257.55087304  .00000306  00000-0  25994-3 0  9990
2 12672  82.9395 103.0076 0027050   9.3911  19.2337 13.84148684270775

Sigue COSMOS 1275 DEB en tiempo real con AllMySat

Download on the App Store